Theta_e
345 345 347 347 347 348 346 347 349 347 348 347 350 349 349 348 350 349 350 349 348 349 345 344 347 347 344 342 343 343 346 346 347 345 346 346 346 344 345 342 343 343 343 344 346 347 348 348 347 345 344 345 345 344 343 343 342 341 339 340 340 339 339 339 339 338 337 336 336 335 336 335 333 331 331 330 331 333 334 336 336 337 337 337 337
345 347 346 347 347 348 348 348 349 348 350 351 351 351 350 350 349 350 347 349 347 347 346 344 341 343 341 340 343 343 345 344 345 343 344 344 346 345 345 346 343 343 343 344 344 346 346 347 347 345 344 344 344 343 343 343 343 342 341 341 340 340 339 339 339 339 338 337 337 336 336 335 332 332 332 331 331 331 333 335 336 337 337 336 336
347 347 348 346 347 347 347 348 347 348 351 351 353 352 352 352 351 350 349 347 346 346 343 342 341 338 339 338 339 341 342 343 342 343 342 342 343 345 344 346 346 341 342 342 343 344 346 347 347 346 345 344 344 344 343 343 343 342 341 341 340 340 340 339 339 339 339 338 338 337 336 336 334 333 332 331 331 331 332 334 334 336 336 336 336
348 348 348 346 346 346 347 348 347 349 351 351 350 353 353 352 351 351 349 348 346 346 346 341 340 337 338 335 337 339 339 340 341 342 343 344 344 345 345 344 345 344 343 341 342 342 344 344 344 345 346 346 345 344 344 343 343 343 342 342 341 340 340 340 340 339 339 339 338 338 337 336 335 334 333 332 331 331 331 332 335 335 336 336 336
349 348 348 347 347 349 347 349 349 350 350 351 351 352 353 352 352 348 348 347 346 345 343 341 339 339 338 336 338 338 341 341 342 342 342 343 343 344 345 345 344 344 341 344 341 341 341 341 342 344 344 345 345 345 344 343 343 343 343 342 341 340 340 340 340 340 339 339 338 338 338 337 336 335 334 333 332 331 331 332 332 334 335 336 337
348 348 347 346 347 347 348 348 348 350 350 351 349 350 350 350 347 344 344 344 342 343 339 338 337 338 339 339 339 341 343 342 340 340 342 343 344 346 344 343 343 346 344 343 342 340 339 340 341 341 342 343 343 344 345 345 343 343 342 341 340 340 341 341 341 340 339 339 339 339 338 337 336 335 335 333 332 331 331 331 333 334 335 336 336
348 348 347 346 346 348 347 348 350 351 348 349 349 350 350 347 343 343 345 341 341 342 340 341 339 337 339 341 339 340 342 341 341 339 340 343 344 346 346 344 344 346 345 342 343 339 340 339 339 340 339 340 340 342 344 344 345 343 343 342 342 341 340 340 341 340 339 340 340 339 339 338 337 336 335 334 333 332 331 331 332 333 334 335 336
348 347 348 346 345 346 347 350 349 350 348 349 350 349 350 346 346 346 342 339 339 340 340 340 340 338 341 341 341 341 340 339 340 340 342 342 343 345 344 345 345 343 343 342 343 344 338 340 339 339 338 338 339 340 343 343 343 343 342 342 342 342 341 340 340 340 340 339 339 339 339 339 338 337 337 335 333 332 332 331 332 333 334 335 335
348 348 347 347 345 348 350 351 351 349 350 349 348 349 349 344 346 347 346 339 337 338 340 340 339 339 339 338 340 340 339 339 340 341 342 342 342 342 343 343 343 341 343 343 342 342 341 338 340 340 338 337 338 338 339 341 341 341 341 342 342 341 341 341 341 339 339 339 339 339 339 339 338 338 337 336 334 333 333 332 331 333 333 334 335
347 347 347 348 348 349 352 351 351 350 350 349 349 349 347 346 345 346 344 343 339 340 340 340 339 337 337 338 340 339 338 341 342 341 340 339 341 341 341 343 342 342 342 342 342 341 341 339 338 337 338 338 337 338 338 338 339 341 341 341 340 341 341 341 341 341 340 340 340 339 338 339 339 339 337 337 336 334 333 332 332 333 334 334 334
347 348 348 346 348 350 352 351 350 349 351 350 349 347 346 348 346 345 347 344 341 341 341 340 338 337 336 338 339 342 340 340 340 338 339 342 340 340 342 341 341 339 341 339 340 340 341 341 339 340 342 336 337 336 335 334 335 336 338 339 339 339 340 341 342 340 339 340 340 339 339 339 339 338 338 337 337 335 335 334 332 333 334 334 334
347 348 348 348 347 348 351 351 351 351 350 348 347 346 347 346 347 344 343 343 343 342 341 340 338 337 336 339 342 341 342 340 341 340 340 341 340 339 338 338 339 338 338 337 338 338 339 339 337 338 338 336 336 336 332 331 331 332 333 334 334 334 336 338 340 341 339 339 338 338 339 338 338 338 338 338 337 336 336 335 334 334 334 334 334
346 347 348 347 348 348 349 349 351 351 350 350 350 348 349 349 344 344 341 340 339 342 342 340 337 331 334 335 339 341 342 341 339 339 339 337 338 335 336 336 337 336 336 334 334 336 336 336 337 337 336 335 335 336 333 329 328 329 329 329 329 330 332 334 337 339 338 338 338 338 338 338 338 338 338 338 338 337 336 335 335 334 334 334 334
347 348 348 347 347 347 348 347 350 350 350 350 350 345 348 348 345 340 342 339 337 339 340 337 332 329 329 328 331 338 340 340 338 338 338 337 337 337 336 337 335 333 333 331 332 332 334 335 337 335 333 332 333 334 334 331 329 325 326 325 325 326 328 329 332 335 336 335 336 337 335 336 337 337 338 338 338 337 337 336 335 334 334 334 334
347 347 347 347 347 346 347 349 350 350 347 347 348 348 349 346 343 340 337 339 338 340 338 338 330 332 334 333 323 324 332 334 337 337 337 336 336 335 335 333 329 333 332 331 331 331 332 334 334 333 331 330 330 330 331 330 327 325 323 321 322 323 325 326 328 331 332 333 333 336 336 335 335 336 337 337 337 337 337 336 336 335 334 334 334
346 345 346 347 347 346 347 348 350 349 349 347 347 347 348 346 342 341 340 335 335 337 338 337 333 330 325 324 325 323 320 327 324 333 334 335 334 333 333 329 331 331 332 329 329 329 329 333 332 331 329 329 328 327 329 329 327 326 323 320 319 320 323 324 326 327 329 330 331 333 332 334 335 335 335 335 335 337 337 337 336 335 335 334 333
346 346 345 346 346 347 346 348 347 347 347 346 345 342 341 342 342 340 339 336 332 335 337 336 335 335 329 325 324 322 322 324 326 329 332 331 331 331 330 329 329 329 328 328 328 328 329 331 330 329 328 327 326 324 325 325 328 327 325 320 318 318 320 321 323 325 326 328 329 330 330 331 332 333 335 335 335 335 336 336 336 336 335 335 334
345 345 345 345 345 346 346 345 345 345 345 344 342 342 340 340 340 339 337 339 336 331 331 336 334 333 332 331 329 321 320 323 325 318 329 332 331 330 329 327 329 326 327 325 326 328 328 328 328 327 326 324 323 323 322 322 323 324 323 319 316 316 316 317 320 322 324 325 327 328 328 330 330 330 332 333 333 334 335 335 336 335 335 335 335
346 346 345 344 345 345 345 345 344 344 343 343 341 340 340 339 339 337 337 336 335 330 330 329 333 332 331 331 330 328 328 323 317 321 319 325 330 327 328 324 326 324 321 324 326 326 327 327 326 324 323 323 322 322 321 321 321 322 318 316 315 315 314 314 315 318 320 322 326 326 327 328 328 328 331 331 330 328 329 332 335 335 334 334 334
344 344 344 343 343 344 344 344 342 343 341 340 339 338 338 339 338 337 336 334 333 329 328 328 326 327 329 328 328 329 328 328 327 321 319 317 321 326 326 325 325 325 321 322 324 324 324 326 324 323 322 321 321 319 320 320 321 321 319 314 315 315 314 314 313 312 314 318 323 324 325 326 327 327 329 329 327 326 326 327 327 332 333 333 334
342 342 342 343 342 343 342 342 341 341 338 339 338 338 338 337 335 334 332 331 331 331 328 326 328 325 327 327 327 326 326 327 324 324 318 316 315 316 317 321 321 323 323 322 321 325 324 322 321 320 320 320 318 318 318 319 319 320 316 313 314 314 314 313 311 311 311 314 319 321 322 324 325 326 327 326 324 325 325 325 325 326 328 330 333
338 338 341 341 342 342 341 340 339 337 337 336 336 336 335 333 333 332 332 330 329 328 327 327 327 326 325 325 323 323 324 322 320 320 321 321 312 314 315 314 311 318 322 319 318 323 321 320 320 319 318 317 316 316 317 318 318 318 314 312 313 314 313 312 311 310 309 312 316 317 319 321 322 324 324 323 323 323 323 324 325 326 325 325 327
338 341 339 340 340 340 340 339 338 337 336 335 334 333 331 330 330 330 329 327 326 326 326 326 324 323 322 321 320 320 318 317 317 318 318 316 313 313 314 312 313 314 318 319 319 320 316 320 317 317 317 317 316 316 317 317 317 314 312 312 313 314 312 311 310 309 309 312 313 314 317 319 320 321 321 320 319 320 320 322 323 324 323 322 324
334 336 336 338 338 337 338 337 336 336 333 333 331 331 330 329 328 327 326 325 326 325 324 322 322 320 321 320 319 319 319 317 318 318 316 315 314 312 311 313 313 314 315 320 317 319 315 316 315 316 315 315 315 316 315 316 316 313 312 312 313 312 311 310 309 309 309 310 310 312 314 316 317 317 318 318 318 318 319 320 321 321 321 321 321
332 333 335 336 336 336 336 335 333 332 331 329 329 329 328 327 327 325 324 323 322 322 320 321 321 319 318 318 318 318 317 318 318 317 317 316 315 310 311 312 310 313 313 315 312 317 313 314 314 314 314 314 315 315 315 315 314 311 311 312 314 310 309 310 310 309 308 308 307 309 310 311 313 315 315 315 315 316 318 317 317 316 317 318 319
331 334 334 334 335 335 335 332 331 329 329 329 328 327 327 325 324 323 322 322 322 321 320 320 320 320 319 317 317 317 316 317 317 316 314 313 310 309 310 311 313 311 312 311 312 311 311 313 315 315 314 314 314 314 314 313 314 310 310 312 314 312 308 308 308 308 308 307 306 306 306 307 309 310 310 312 312 312 312 314 314 314 314 315 317
329 330 332 332 333 332 332 330 329 328 327 327 326 326 326 324 323 322 321 321 319 318 318 318 317 318 318 317 316 316 315 315 315 314 314 313 312 311 310 307 309 311 309 311 311 310 308 312 313 312 313 315 315 314 313 313 312 310 310 313 314 311 307 307 308 308 307 307 306 306 305 305 307 307 307 308 309 311 312 313 313 312 312 314 315
329 328 329 330 329 329 329 328 328 327 326 326 325 324 324 323 321 321 319 319 318 317 317 318 317 318 318 317 316 314 315 314 314 314 313 314 313 313 311 309 306 305 308 308 309 308 310 309 311 313 313 313 313 315 313 313 312 309 312 312 312 312 308 306 307 308 307 306 306 306 305 305 306 306 307 309 311 312 312 312 312 311 311 312 314
328 328 327 328 328 329 327 326 325 325 325 324 323 323 323 322 320 319 318 318 317 317 317 317 317 317 316 316 314 314 313 314 314 314 314 314 313 312 311 309 309 306 304 304 307 305 307 310 308 310 312 312 312 314 313 312 311 309 311 312 312 313 308 306 306 307 306 305 305 304 305 306 307 307 308 310 311 311 310 310 310 310 310 311 314
327 326 326 326 326 327 326 325 324 324 324 323 322 322 322 320 319 317 317 317 316 316 316 316 316 316 316 315 314 312 313 313 312 314 313 313 312 312 311 310 310 307 306 304 305 308 307 311 310 308 310 311 312 313 312 312 310 309 310 310 311 311 306 306 306 305 305 304 303 302 303 304 305 306 307 309 309 309 309 309 309 309 310 311 312
325 325 325 325 327 327 325 323 323 323 323 322 322 320 320 318 318 316 316 316 315 314 315 315 315 315 313 312 312 311 312 312 312 312 313 312 311 311 310 311 310 310 308 307 304 308 310 307 309 310 309 310 311 311 311 311 310 309 310 311 310 308 308 308 307 306 304 303 303 303 304 303 303 303 304 306 307 307 308 308 308 308 309 310 309
324 324 324 324 327 326 324 322 322 322 321 321 320 319 319 318 316 314 314 314 313 313 313 313 312 312 311 310 310 310 311 310 311 311 310 311 311 309 310 310 310 310 309 307 306 305 310 308 309 309 310 311 311 310 310 310 310 309 311 310 309 308 310 310 307 306 304 303 302 302 303 302 302 303 304 305 305 306 307 306 306 307 307 307 306
324 324 324 324 325 324 322 321 321 321 320 319 319 318 317 315 314 313 313 312 311 311 312 311 310 310 309 308 309 309 311 310 310 310 310 310 311 310 310 309 309 310 308 308 305 306 309 311 310 309 310 310 309 309 308 309 309 309 309 310 310 310 309 309 309 306 303 302 301 301 301 301 301 304 304 304 304 305 305 303 304 304 306 305 303
324 323 323 324 324 323 321 320 320 320 319 318 318 317 315 313 313 313 313 311 311 310 310 309 310 310 310 308 308 309 310 309 310 308 309 309 309 308 308 309 308 309 309 307 306 306 306 309 308 310 309 310 307 309 308 307 307 308 308 308 309 310 309 309 308 309 303 303 301 301 301 301 300 301 302 301 300 301 302 302 302 302 303 302 299
323 323 323 323 323 322 320 320 319 319 318 317 317 316 313 312 311 312 312 311 310 309 309 308 308 309 309 309 309 310 311 310 309 310 310 309 309 308 309 310 309 309 310 310 307 306 306 306 308 307 308 308 307 306 307 307 307 308 306 307 307 308 309 309 308 309 304 302 301 302 301 301 301 301 301 301 301 301 301 302 302 302 300 300 299
320 321 322 321 321 320 318 318 318 317 316 316 315 313 311 311 311 310 311 311 310 309 308 308 308 309 309 308 309 309 309 309 308 308 308 308 308 309 309 309 310 309 309 310 309 308 307 305 307 306 307 306 306 307 307 308 307 307 307 308 309 308 309 308 308 308 305 303 302 302 302 302 302 301 301 301 301 301 301 302 302 300 299 299 299
320 320 320 321 320 319 318 317 317 316 315 314 313 311 311 312 311 310 310 310 310 309 309 309 309 309 308 308 308 308 309 308 308 307 308 308 308 309 309 309 309 310 310 309 309 309 308 305 306 307 308 307 306 307 306 305 305 306 307 306 307 307 308 308 308 307 305 304 304 303 302 302 302 301 301 301 301 301 301 302 300 299 299 299 299
319 319 320 320 319 318 317 316 316 315 314 313 311 310 310 310 310 310 310 309 309 309 309 309 309 309 309 308 307 308 308 307 308 308 309 309 308 308 308 308 309 310 310 310 310 309 308 306 306 305 307 305 305 306 306 306 304 303 304 305 306 306 306 306 306 307 307 306 306 305 303 303 302 302 301 301 301 301 301 301 300 299 299 299 298
318 317 319 318 318 317 316 316 314 314 313 311 310 310 310 310 309 309 309 309 309 309 309 309 309 309 308 307 308 308 307 307 306 307 308 308 307 307 308 308 308 309 309 309 309 308 307 306 306 306 305 306 305 303 305 306 305 304 302 301 302 304 305 305 304 306 306 306 305 303 304 303 303 303 301 301 302 301 301 300 300 300 299 298 298
317 317 317 317 317 316 316 315 314 313 311 310 310 309 309 309 309 309 309 309 308 308 309 309 309 309 308 307 306 306 305 305 305 304 305 306 306 306 307 308 309 309 308 308 308 307 306 306 304 303 304 303 303 305 306 305 303 302 303 301 299 300 302 304 305 304 304 304 304 304 304 304 303 303 302 302 302 301 301 301 300 299 299 298 297
317 317 318 317 315 314 314 313 312 312 310 310 310 309 309 308 309 308 308 307 307 307 307 307 307 307 307 307 305 304 305 302 299 300 300 302 306 305 306 307 308 308 308 307 307 306 305 305 303 304 303 302 302 302 302 301 300 299 302 302 301 301 302 302 303 305 304 302 303 303 303 304 303 303 303 303 303 303 303 301 300 299 298 297 297
316 316 316 316 314 313 312 311 311 311 310 310 307 302 305 308 308 308 308 307 307 307 306 306 306 306 305 305 305 303 302 301 299 297 296 296 299 302 304 305 305 306 307 306 305 305 305 303 302 302 301 301 301 302 302 302 303 303 302 302 299 300 301 300 302 304 305 303 302 301 303 304 303 302 302 301 303 303 302 301 299 298 298 297 297
316 316 315 314 313 312 311 310 309 309 308 306 296 295 297 301 308 309 308 307 307 307 306 305 305 306 306 305 306 305 304 303 301 295 295 295 295 295 295 297 299 303 305 305 305 305 303 303 302 301 300 301 301 302 301 301 302 302 301 302 301 300 298 296 296 301 304 303 301 300 300 303 303 301 302 302 301 301 301 300 298 298 297 297 297
315 315 314 313 312 311 310 308 307 307 306 298 294 295 296 297 302 308 308 308 307 306 305 305 305 306 306 306 306 307 307 307 306 304 300 296 294 294 294 294 294 293 294 301 304 304 304 302 302 301 301 301 301 301 300 301 300 302 302 302 301 300 298 297 298 297 302 304 300 299 298 303 303 302 301 302 301 301 301 299 298 297 297 297 297
315 314 313 311 310 309 308 306 305 305 305 294 294 294 295 296 297 304 307 307 306 305 306 305 305 305 305 305 306 306 305 302 305 306 306 305 298 295 296 296 296 295 293 292 294 303 306 303 303 301 301 301 300 300 302 301 303 301 301 300 301 301 300 299 299 299 302 304 301 298 297 301 302 301 300 302 302 301 301 299 298 297 297 297 297
314 313 312 310 308 308 307 306 304 304 304 295 293 294 294 295 296 300 307 306 306 305 305 305 306 306 305 305 305 304 304 305 307 306 305 306 307 308 308 307 306 303 297 295 294 294 301 305 304 302 302 303 300 302 303 303 301 300 301 300 302 301 301 300 303 302 304 304 300 298 297 299 302 301 299 301 303 301 301 300 298 297 297 297 296
313 311 310 309 308 307 306 306 305 304 304 293 293 293 294 295 295 299 307 307 306 305 305 305 305 305 305 305 305 303 302 302 303 300 305 305 306 307 307 306 306 304 304 304 304 305 305 305 304 303 303 303 303 303 303 303 303 303 304 303 303 302 303 304 304 303 304 305 303 299 294 298 301 300 300 301 302 301 302 300 299 298 297 297 296
313 312 310 309 307 307 306 306 304 303 303 291 292 293 293 295 296 306 306 306 305 305 305 305 305 305 305 305 304 302 302 300 298 290 296 307 305 306 304 305 306 306 303 301 296 297 304 304 304 304 304 304 297 303 302 302 303 304 305 304 304 303 301 299 298 300 300 303 304 298 295 297 301 299 299 301 301 300 302 302 299 298 297 297 296
311 310 309 308 308 307 306 306 304 303 302 295 291 292 294 293 299 306 306 304 305 305 305 305 305 305 306 305 303 302 300 300 295 289 291 297 305 304 303 303 304 305 305 307 295 292 292 292 291 291 291 291 291 292 292 291 300 302 304 300 299 301 299 296 297 298 299 301 302 300 298 297 300 299 298 300 300 300 301 301 301 299 298 297 297
310 309 308 307 307 307 306 305 304 303 303 297 291 293 293 292 298 305 305 304 304 305 305 304 303 301 302 300 305 302 300 300 291 290 289 302 305 304 303 302 302 303 303 305 307 307 293 292 292 291 292 292 292 292 292 293 294 299 304 299 301 300 298 297 295 297 299 300 300 301 298 297 299 300 297 299 300 301 300 301 301 301 299 299 298
310 309 307 306 306 306 307 306 304 304 303 299 291 292 293 294 302 307 304 304 303 303 303 303 303 301 301 301 295 299 301 298 288 290 289 298 305 304 303 302 300 300 303 304 302 304 305 305 306 309 306 301 308 306 303 295 295 300 305 304 303 300 298 297 297 297 295 296 299 302 297 297 298 299 297 295 294 298 301 301 301 302 302 302 301
Wind_Speed
5 4 3 3 3 2 2 2 1 1 2 1 1 2 2 2 1 2 1 2 2 3 3 4 4 3 3 3 3 3 3 4 3 3 3 4 4 4 5 3 1 3 2 4 4 5 5 7 9 11 12 11 11 12 12 11 11 10 10 11 13 13 13 14 14 13 13 12 11 11 11 13 9 9 9 8 7 7 7 8 9 9 8 6 6
5 4 5 5 4 4 3 3 3 2 2 2 1 2 1 0 2 3 2 2 2 2 3 3 4 3 3 3 2 3 3 3 3 4 4 4 3 1 8 5 3 1 2 2 3 5 5 6 7 9 11 12 12 12 12 12 11 11 12 13 12 13 13 14 14 14 14 13 12 11 12 10 9 11 9 9 9 7 7 7 8 9 9 6 6
5 5 4 4 4 4 3 3 3 2 2 2 2 1 1 1 1 2 2 2 2 1 3 3 4 4 2 4 2 2 3 3 3 3 4 4 4 4 2 9 5 3 1 2 4 5 6 7 8 9 10 10 11 11 12 12 13 12 10 12 12 12 13 13 14 15 15 14 13 12 11 12 11 12 10 9 10 9 8 6 7 8 9 7 6
5 5 4 4 4 3 3 3 2 2 2 1 1 1 1 0 1 1 2 2 1 2 2 3 4 4 4 3 4 4 3 3 3 3 4 5 4 3 4 1 9 4 3 2 4 6 7 7 7 8 9 10 10 10 9 10 10 12 13 13 11 11 12 13 13 14 15 15 15 13 12 11 11 11 11 11 11 10 9 8 6 7 8 8 7
5 5 4 4 3 3 3 3 3 1 2 1 1 2 1 1 1 2 2 2 1 1 2 3 2 3 4 4 3 3 4 5 4 3 4 4 4 3 3 3 1 9 6 4 5 6 6 7 7 8 8 9 10 10 10 8 8 9 10 11 10 12 13 13 12 13 14 15 15 15 13 13 13 12 11 11 11 11 10 9 8 7 7 8 8
6 5 5 4 4 4 3 3 2 2 2 2 2 1 0 1 1 2 1 2 2 2 2 3 4 3 2 4 4 4 4 4 4 4 3 3 3 3 3 3 2 3 3 9 8 6 5 6 7 7 8 8 9 10 10 9 8 7 8 9 10 10 12 12 12 12 14 14 15 14 14 14 14 13 11 11 11 11 11 11 9 8 7 8 8
6 5 6 5 5 4 4 3 2 2 2 2 2 1 1 1 1 3 1 2 2 2 3 3 5 6 5 5 4 4 3 3 3 3 3 2 2 3 3 3 3 4 4 2 11 9 5 4 5 6 8 9 10 10 10 10 10 9 8 9 9 10 11 11 11 12 13 14 15 14 15 13 13 13 13 11 12 12 11 12 11 9 8 8 8
5 5 5 5 5 4 4 2 3 2 2 2 2 1 0 1 1 2 2 3 3 3 3 4 5 5 5 5 4 4 4 3 3 2 3 2 3 3 3 5 5 4 5 4 5 7 6 3 1 2 7 10 11 11 12 12 12 12 10 9 9 9 8 10 11 12 13 14 14 14 15 15 14 13 14 13 12 12 12 12 12 11 10 9 9
6 5 5 5 4 4 2 3 2 2 2 2 2 1 1 1 1 2 3 4 4 4 4 4 5 5 4 4 3 3 3 3 1 2 2 3 4 4 4 4 4 3 4 5 4 5 8 4 2 5 7 12 11 12 13 14 12 11 11 11 11 10 8 10 11 11 13 13 15 15 16 16 15 15 14 13 13 13 13 13 13 13 12 10 10
6 5 4 4 4 3 3 3 3 2 2 2 1 1 1 1 1 1 3 3 3 4 5 5 5 5 5 5 4 3 1 1 2 2 3 4 4 4 4 5 5 5 5 4 5 4 6 2 3 12 10 12 10 13 14 15 16 17 17 17 16 15 13 11 10 10 12 14 14 15 15 13 14 15 16 15 14 14 14 13 13 14 13 12 11
6 5 4 5 4 3 2 2 2 2 2 2 3 2 1 1 1 1 2 3 3 4 4 5 5 5 5 4 3 1 1 2 2 2 3 3 3 4 3 4 4 5 5 5 4 6 5 5 6 5 7 12 10 12 15 17 18 19 18 18 18 18 17 15 14 12 10 12 15 15 14 13 13 14 14 15 16 15 15 15 14 15 15 13 12
5 5 5 4 3 2 2 3 2 2 2 1 2 2 1 1 0 1 1 2 1 4 5 6 6 5 4 3 0 1 2 2 2 2 2 2 3 3 4 4 4 5 5 5 5 5 5 5 6 5 6 7 11 11 16 18 17 19 19 20 21 21 21 21 19 15 12 11 13 16 13 12 12 14 17 17 17 17 16 16 15 15 16 15 14
5 5 5 4 3 2 3 3 2 2 2 2 2 2 1 0 0 1 2 3 3 5 6 7 6 3 4 1 1 1 3 2 2 3 3 3 3 5 4 5 6 5 5 5 5 5 6 6 6 7 7 9 5 8 13 17 17 17 19 19 19 20 21 22 23 22 18 16 13 13 13 14 14 13 14 18 18 17 19 18 17 16 17 17 16
5 5 5 4 3 3 3 3 2 2 2 2 3 2 1 1 1 1 1 3 3 5 7 8 4 6 5 2 3 3 3 3 2 2 3 3 3 4 4 5 6 7 5 5 5 5 6 6 6 6 7 8 7 8 8 9 10 14 17 19 19 19 19 20 21 22 23 22 20 16 12 14 13 13 15 17 18 20 20 20 20 18 16 18 17
6 5 4 4 4 4 3 3 3 3 3 3 3 2 0 0 2 2 2 1 2 4 6 7 6 7 5 5 1 3 4 3 3 2 1 3 4 4 5 6 7 7 5 5 5 5 5 6 6 7 7 7 8 8 7 7 9 11 16 19 19 18 18 19 19 20 21 22 22 22 19 12 16 14 16 17 18 19 19 20 20 19 18 17 17
6 6 5 4 4 4 4 4 4 3 3 3 2 2 1 1 2 2 4 3 3 3 5 6 6 7 4 5 2 5 2 3 4 1 3 2 2 4 5 6 6 6 5 6 6 6 7 7 7 8 8 8 8 7 7 8 7 7 11 17 18 18 18 18 19 19 19 20 21 23 23 21 15 12 15 15 17 17 17 18 19 20 20 20 19
5 5 5 5 5 4 4 4 4 3 3 3 2 2 1 2 3 3 4 4 4 3 4 5 6 6 5 5 2 2 5 5 7 1 2 1 3 4 5 7 6 5 5 5 6 6 5 6 7 6 7 8 8 7 7 8 8 9 9 15 19 19 19 18 19 19 20 20 20 21 22 22 21 17 14 15 19 18 17 19 21 21 21 19 18
5 5 5 4 5 4 4 4 4 3 2 2 2 2 2 3 3 3 3 5 5 3 2 3 4 4 5 5 4 5 5 6 7 2 3 5 1 2 4 5 4 5 5 6 6 6 6 5 7 7 7 7 7 7 7 7 8 8 7 11 17 18 19 19 19 19 20 21 20 19 20 21 22 21 20 20 19 15 20 21 20 21 20 21 20
5 4 4 5 5 5 4 4 4 4 3 3 2 2 3 4 4 4 4 3 3 2 2 3 2 3 3 3 3 3 4 5 4 5 2 2 0 3 3 6 5 6 6 6 6 5 5 5 5 6 6 6 7 7 7 8 8 7 14 17 15 16 17 19 19 20 20 21 20 20 20 19 20 21 22 20 17 19 21 17 18 21 20 22 20
3 4 5 5 6 6 5 5 5 4 3 3 3 4 3 3 4 4 4 4 4 3 3 3 3 4 1 1 0 1 1 2 3 5 4 5 0 3 4 6 4 5 6 7 6 6 5 5 6 7 6 6 6 7 7 7 7 8 9 18 18 17 15 17 18 19 20 21 20 20 21 21 20 21 22 22 20 19 18 18 21 18 20 23 23
3 3 5 5 6 6 6 5 5 4 3 3 3 3 4 5 4 5 4 4 4 3 2 3 3 3 3 2 2 2 1 2 3 3 4 5 2 4 5 4 3 4 6 7 6 5 5 7 7 7 7 7 8 8 8 8 8 8 12 17 18 17 14 15 17 19 20 21 20 21 21 21 21 21 21 20 20 20 18 18 17 19 20 18 22
3 3 4 5 6 6 6 6 6 5 3 4 4 4 4 4 5 5 5 5 4 4 4 3 4 4 4 3 3 2 2 2 4 5 3 3 5 6 6 6 6 3 4 7 7 5 7 7 8 9 9 9 10 10 10 10 9 8 12 18 18 15 11 14 16 19 20 21 21 21 21 21 21 21 21 21 21 19 19 19 18 18 18 19 20
2 1 3 5 5 6 6 6 6 4 3 4 3 4 4 5 6 6 6 5 4 5 6 5 4 5 5 5 5 5 5 5 5 5 5 5 6 5 6 6 6 4 4 4 4 4 7 5 6 6 7 8 8 9 9 10 10 14 17 18 19 12 10 14 17 18 19 21 21 21 21 21 21 21 21 21 22 22 21 19 18 17 16 18 20
6 5 4 4 4 5 7 5 4 4 4 3 3 4 5 5 5 5 5 6 6 5 5 6 6 5 6 5 5 5 5 5 5 5 5 5 5 6 6 6 4 4 3 1 3 3 6 5 6 6 7 8 8 8 10 9 8 19 16 16 18 9 11 16 18 19 18 19 21 22 22 22 22 22 21 21 21 22 21 20 19 18 17 17 18
5 5 4 5 4 5 4 4 4 4 4 5 5 6 6 6 6 6 6 6 6 6 6 7 6 5 5 5 5 5 5 5 5 5 5 5 5 6 6 6 5 4 4 2 4 3 5 5 6 6 8 8 7 9 10 10 9 17 20 14 10 8 12 18 19 19 18 17 19 20 22 23 23 22 22 22 22 21 21 20 19 18 18 16 17
7 6 5 4 4 4 5 5 5 6 6 6 6 6 6 6 7 7 7 6 6 7 7 7 7 6 5 5 6 5 5 5 5 5 5 5 5 6 6 5 3 4 3 4 4 4 6 6 5 6 8 8 8 10 10 11 9 18 19 15 11 8 11 14 18 18 17 17 17 18 21 22 22 22 22 22 22 22 20 20 19 20 18 17 17
6 7 6 6 6 6 6 6 6 6 7 7 7 6 7 7 7 7 6 6 7 7 7 7 7 8 7 6 6 6 5 5 5 5 4 5 5 6 7 8 5 2 3 3 4 6 8 6 5 8 9 9 8 10 10 11 12 18 16 12 12 7 11 20 19 17 15 16 15 17 19 21 22 23 22 22 23 22 23 22 22 22 21 20 20
6 8 7 7 7 7 7 7 7 7 7 7 7 7 7 7 7 6 7 5 7 8 8 8 8 8 7 6 6 6 6 5 5 4 5 5 5 5 6 6 7 6 4 4 5 6 9 8 6 9 10 9 9 9 9 12 12 18 16 12 11 11 18 20 17 12 14 13 15 18 22 22 23 23 23 23 22 22 22 22 22 22 23 22 22
7 7 8 8 7 7 7 7 7 7 7 7 8 8 8 7 7 7 7 7 7 8 7 8 8 7 7 8 6 6 6 5 5 5 5 5 5 5 6 6 6 6 6 6 6 7 9 10 9 9 11 11 10 9 10 11 14 16 13 12 12 12 17 19 13 8 9 10 14 18 21 23 23 22 22 23 23 23 22 22 22 22 21 23 23
7 7 8 9 8 7 7 7 7 7 8 8 8 9 8 7 7 7 7 7 8 7 8 8 8 7 7 7 6 7 6 6 6 6 5 5 5 5 5 6 6 6 6 6 5 8 9 9 9 10 12 12 11 10 10 10 14 15 13 13 12 14 15 14 8 8 7 10 14 17 20 22 22 22 23 22 22 22 22 21 21 22 21 22 22
8 8 9 9 8 7 7 7 7 8 8 9 9 8 7 7 7 7 7 7 8 8 7 7 6 7 7 8 7 7 6 6 6 6 6 6 6 5 5 5 7 7 6 5 6 7 8 9 10 11 12 14 11 10 11 10 12 14 13 13 14 14 13 13 11 8 7 10 13 16 22 21 18 21 22 22 22 22 22 22 21 21 21 21 20
9 9 9 9 7 8 8 8 9 9 9 9 8 8 7 6 6 7 7 8 9 9 8 7 7 8 9 9 8 6 6 6 6 6 6 6 6 6 5 6 5 6 6 5 6 6 7 8 9 10 13 13 11 12 13 11 11 13 12 12 14 15 13 13 14 9 7 9 13 16 17 17 18 20 22 22 22 22 22 20 20 19 18 19 18
9 9 9 9 8 8 8 9 9 9 9 9 8 7 7 7 7 8 8 9 10 9 9 9 9 9 9 9 9 8 7 7 6 6 6 6 5 5 6 6 6 6 7 6 6 6 6 6 7 8 9 12 11 13 13 12 13 12 12 12 14 13 13 13 13 11 8 13 16 15 15 15 17 19 21 20 20 20 19 16 17 16 16 16 16
9 9 10 8 8 9 9 10 10 10 10 9 8 7 8 8 8 7 8 10 10 10 9 10 9 7 8 9 9 9 8 8 8 7 6 6 6 6 6 7 6 6 7 7 6 7 8 6 8 7 9 11 10 12 13 13 14 14 15 14 13 14 14 14 13 12 15 18 15 14 14 15 15 15 16 18 17 16 16 16 15 13 13 16 15
9 8 8 8 9 9 9 10 10 10 10 9 8 8 8 9 9 9 9 10 10 10 10 10 9 9 9 9 8 7 6 7 7 6 6 6 5 6 6 6 6 6 7 7 7 7 8 7 8 9 10 10 11 13 14 12 13 13 14 15 14 12 12 14 13 12 15 15 15 14 14 15 14 13 16 16 16 16 15 15 15 12 14 16 17
10 8 8 9 9 9 10 10 10 10 10 9 9 8 9 9 10 11 10 10 10 10 10 10 9 8 9 8 7 7 7 7 7 7 6 6 6 5 5 5 5 6 6 6 6 6 6 7 8 9 9 10 10 11 11 12 13 13 11 13 14 14 14 13 14 13 14 16 16 16 16 16 15 16 15 15 16 15 16 17 13 15 17 17 18
10 9 8 9 9 9 9 10 10 10 9 9 9 9 9 9 10 10 10 10 10 10 10 10 9 9 9 8 8 7 7 7 7 7 7 7 6 6 6 6 6 5 5 5 6 7 7 8 7 7 8 9 9 10 12 12 12 12 13 13 14 15 14 14 13 13 16 18 18 17 16 16 16 17 13 15 14 14 16 14 12 18 19 19 19
10 9 9 8 9 10 10 10 10 10 10 9 10 10 10 10 10 10 10 10 10 10 10 9 9 8 8 8 8 8 8 7 7 6 6 6 6 6 7 7 6 5 5 5 5 6 7 7 8 8 9 9 10 10 12 12 12 12 13 13 13 13 15 14 14 13 13 15 15 16 17 16 18 16 14 15 12 14 13 12 12 17 19 20 21
10 9 9 10 9 9 10 10 10 10 10 10 10 10 11 11 11 11 10 10 10 9 9 9 9 8 8 8 8 8 8 8 8 7 5 5 6 7 7 6 6 6 5 6 5 6 7 8 8 8 9 9 10 11 11 12 12 12 14 14 13 13 14 15 15 14 14 16 17 17 15 14 15 14 12 12 11 15 12 13 14 20 21 22 22
10 10 11 11 9 9 9 9 9 9 10 10 10 10 10 10 10 11 10 10 10 10 10 9 8 8 9 9 9 9 10 10 9 9 8 6 6 7 7 7 7 7 6 6 6 7 7 8 9 9 9 9 9 10 10 11 11 12 13 14 15 15 15 14 15 15 16 17 17 16 15 15 16 16 14 14 13 15 12 15 19 25 26 25 23
9 11 11 10 10 10 9 9 10 9 9 9 8 9 10 11 10 11 10 10 10 10 10 9 9 9 9 9 9 10 9 8 8 7 8 9 6 7 8 8 7 7 7 7 7 7 8 8 9 9 9 10 11 12 12 12 13 14 13 13 12 14 14 14 14 14 15 17 17 16 15 15 16 16 14 14 15 18 15 16 18 25 25 22 22
11 11 12 11 11 10 10 10 9 8 7 6 6 8 9 10 10 9 9 10 10 9 9 9 9 9 10 9 8 9 7 5 5 4 7 10 10 9 8 9 9 8 8 8 8 8 8 9 10 9 10 11 11 12 12 12 11 12 12 12 13 13 14 14 12 13 16 17 17 17 15 14 15 15 14 14 14 15 13 14 14 18 21 22 22
13 13 11 11 10 10 10 10 9 8 7 6 8 9 10 10 10 10 9 9 9 9 9 9 9 9 9 9 8 9 10 9 8 8 6 6 8 10 10 11 11 9 8 8 8 9 8 8 9 9 9 10 11 11 11 11 11 11 11 11 12 12 13 15 15 13 14 17 17 17 15 14 14 15 14 14 14 13 14 14 18 21 22 22 22
13 12 11 11 10 10 10 11 10 9 8 6 9 8 7 6 9 9 9 8 8 8 8 9 8 8 8 7 6 5 4 3 6 8 8 7 8 7 9 9 10 10 10 9 8 8 9 9 9 10 10 9 10 10 11 11 11 11 11 11 11 12 13 14 13 15 14 16 17 16 14 13 15 15 14 14 13 12 14 15 19 20 21 22 22
13 13 11 11 11 11 11 12 11 11 9 6 8 8 7 7 7 9 9 9 8 9 8 8 8 8 7 6 6 4 3 2 3 4 4 7 9 10 11 12 11 9 7 6 7 8 7 8 8 9 9 9 9 10 11 12 11 10 11 10 12 12 11 12 12 12 13 14 15 15 14 14 15 15 14 13 13 12 12 16 19 20 20 21 22
13 13 12 12 12 11 11 12 11 11 9 5 8 8 7 5 3 8 9 9 9 9 9 8 7 7 6 6 5 5 5 4 3 4 5 5 6 5 5 7 8 7 7 6 4 3 5 7 8 7 8 8 7 9 10 11 11 10 10 11 12 12 12 12 12 11 10 11 14 15 13 14 16 15 14 14 14 13 11 15 19 19 20 21 21
14 13 11 12 11 12 12 11 11 11 7 6 8 8 7 6 7 10 9 8 9 8 8 8 8 7 7 6 6 6 6 6 5 9 4 5 5 5 6 7 8 8 8 8 8 7 6 6 6 6 6 6 6 8 9 9 11 9 9 10 11 11 10 10 7 9 9 10 14 13 12 14 15 15 15 15 14 13 11 13 17 18 21 21 21
12 11 10 11 12 12 12 12 11 11 7 5 8 8 7 6 6 8 8 9 8 8 8 7 7 6 6 6 7 7 6 7 6 10 9 5 6 6 6 6 6 6 7 4 1 3 5 5 4 4 4 3 5 6 6 7 9 10 9 9 9 10 10 10 10 10 10 9 13 14 13 13 14 14 15 14 14 14 14 15 18 20 22 21 21
13 11 11 11 11 12 12 12 12 11 9 5 7 9 8 7 5 8 8 8 8 8 7 7 6 5 5 5 7 6 7 6 5 9 10 9 6 6 6 6 5 5 5 4 7 7 6 8 9 10 9 10 11 12 11 12 8 10 9 10 11 11 11 12 11 11 11 10 11 14 13 12 14 15 14 15 15 13 14 14 14 18 19 19 20
12 11 11 11 11 11 12 12 11 11 10 6 7 8 7 5 5 7 7 7 8 7 7 7 7 7 7 11 8 7 6 5 5 8 10 7 6 5 5 5 5 5 5 4 1 6 13 11 11 11 11 10 11 12 12 11 10 9 10 10 12 11 11 11 12 12 10 10 11 13 11 11 14 14 14 13 12 12 13 14 15 14 15 16 19
11 11 11 11 11 11 11 11 12 11 10 7 4 6 5 5 6 6 6 8 7 7 7 7 7 7 6 7 10 8 6 4 4 7 10 9 5 5 4 4 5 5 4 4 4 5 4 3 2 3 4 8 6 4 3 10 10 7 8 9 9 10 10 11 11 11 10 10 12 15 12 11 12 12 14 14 14 11 12 13 13 11 10 10 12
Wind_Direction
160 158 159 141 134 167 190 178 227 160 161 149 145 173 185 211 215 257 228 256 270 275 289 297 284 279 293 296 310 312 308 306 320 322 308 329 310 103 120 149 280 270 281 293 291 293 284 278 271 267 265 263 259 255 255 261 264 262 270 270 265 269 267 256 252 254 257 265 271 270 269 273 285 275 272 273 278 290 302 305 307 307 305 306 319
157 156 168 160 161 172 191 188 187 180 180 170 171 204 202 199 236 259 277 253 284 315 300 299 288 295 302 312 291 303 322 307 311 312 335 305 311 4 142 160 202 248 278 319 325 332 322 308 294 284 274 272 269 266 267 268 271 270 263 267 265 266 268 265 256 255 255 258 262 266 272 272 254 268 269 265 267 273 287 298 303 305 300 297 309
164 166 159 164 165 185 193 189 199 172 204 173 197 214 215 196 300 302 290 313 312 324 312 319 309 297 337 293 317 298 304 317 317 318 314 321 327 325 149 157 160 156 340 18 2 356 342 334 322 312 301 292 285 278 272 271 276 276 261 265 266 267 262 263 261 256 257 258 257 263 266 267 257 268 275 268 267 266 270 281 296 298 295 290 290
168 163 162 167 183 185 190 212 199 186 188 199 200 234 225 341 299 286 291 288 319 314 326 301 313 324 315 323 335 331 333 324 323 334 331 325 323 333 328 83 153 140 127 40 29 11 358 346 335 322 313 311 310 306 298 287 273 271 270 269 264 258 261 260 261 260 256 256 260 262 263 269 259 263 265 267 268 266 265 270 278 291 289 280 280
173 171 165 174 173 195 203 203 207 182 181 185 236 232 211 213 194 249 270 281 285 293 291 282 284 317 316 317 319 325 357 327 336 333 336 317 332 332 335 347 19 153 149 112 76 27 10 354 340 333 327 324 321 315 312 300 271 271 272 267 272 270 265 260 260 261 259 257 259 261 261 261 259 257 258 261 263 262 261 262 267 272 278 276 275
169 172 174 168 187 197 205 204 188 185 185 200 221 228 245 308 293 277 301 295 300 324 311 325 326 299 316 334 326 0 330 323 334 326 326 345 343 349 359 349 358 12 112 127 95 71 29 8 359 358 352 350 342 334 329 323 315 296 261 266 268 272 272 265 261 264 265 259 255 254 255 258 259 258 254 257 258 258 260 261 259 259 267 271 270
173 176 178 180 189 193 206 193 180 203 208 179 260 218 226 270 321 306 327 288 312 352 342 330 329 326 344 337 336 333 313 318 321 331 353 13 354 27 21 24 16 22 3 70 132 106 85 20 29 13 24 17 8 0 351 345 341 338 319 287 280 279 269 270 268 260 263 266 261 253 251 247 254 259 260 254 251 253 257 258 257 256 258 261 262
178 179 184 193 193 198 192 170 189 212 182 165 223 204 154 286 305 294 302 320 328 337 337 347 326 332 329 319 333 316 324 326 335 0 12 2 49 37 32 40 26 36 11 12 350 106 93 95 358 50 55 38 22 20 13 9 3 358 351 339 318 302 281 272 265 264 263 264 263 260 254 250 244 246 254 257 252 253 258 258 257 255 254 253 252
187 184 197 194 197 191 184 167 207 198 169 163 186 188 153 264 291 338 326 325 332 351 340 341 328 314 295 312 329 313 309 337 358 5 54 36 42 54 47 37 52 30 33 6 2 348 133 127 198 157 104 52 39 32 36 23 14 9 2 358 354 345 328 300 277 265 266 261 261 261 262 260 249 246 241 245 251 252 250 248 247 249 249 247 247
186 185 197 202 198 187 175 182 195 181 169 180 152 129 78 348 310 350 343 326 336 352 346 342 325 317 325 340 325 314 326 339 22 10 26 41 49 42 38 40 26 26 13 9 0 1 347 93 209 133 84 76 49 48 43 33 24 21 18 13 8 0 351 337 316 285 265 257 260 264 265 260 250 247 246 247 248 250 251 246 238 237 237 237 238
188 186 197 195 195 175 183 196 201 188 170 188 146 119 80 38 319 2 345 343 349 357 349 333 322 320 319 331 300 295 302 27 356 34 40 40 46 37 27 27 15 13 2 352 11 356 357 356 350 340 84 91 84 71 54 44 25 22 17 12 8 4 355 353 343 334 318 279 261 263 263 260 252 246 240 240 247 246 241 244 241 234 233 231 230
187 191 197 200 199 173 185 206 192 194 166 159 143 137 134 205 20 333 336 306 5 354 359 340 320 303 322 313 36 251 199 89 39 20 41 43 29 26 5 3 355 353 351 354 5 2 355 358 354 7 352 100 108 93 68 55 33 27 20 16 8 5 3 357 354 349 342 327 309 288 266 262 257 253 248 241 236 239 242 241 242 237 235 233 229
190 194 199 195 199 188 206 207 195 177 164 140 117 105 127 0 247 316 336 333 20 5 15 337 305 307 327 265 183 104 159 154 51 27 13 18 20 14 13 357 358 348 353 350 355 11 353 6 9 2 9 353 15 110 91 66 45 28 25 18 11 7 2 357 355 353 353 347 334 309 300 270 259 251 249 247 237 238 245 246 242 236 235 234 230
192 198 200 200 194 198 207 192 186 161 153 136 138 137 169 223 294 295 51 2 20 31 14 340 344 352 324 309 156 130 148 178 121 60 2 31 31 22 6 1 6 348 351 348 1 5 11 4 15 15 14 355 355 347 5 37 36 39 27 16 9 6 5 360 353 351 350 352 350 344 308 299 280 264 262 253 249 245 244 246 245 240 235 236 234
192 191 197 206 205 204 195 166 182 160 156 152 150 158 103 333 347 345 340 52 36 44 25 6 340 333 277 256 143 212 158 179 175 112 29 43 36 27 14 359 13 2 1 8 6 8 14 16 18 28 6 355 352 355 357 26 30 37 32 18 8 4 1 359 357 353 351 347 344 346 352 346 330 289 262 263 258 250 246 247 245 243 241 236 236
188 187 188 195 203 201 181 168 167 164 147 154 131 122 133 55 45 14 355 342 16 55 67 23 3 346 355 334 336 290 187 109 352 65 108 88 52 38 29 9 8 13 7 11 8 8 12 22 18 13 3 358 353 359 1 357 8 19 32 25 8 3 0 358 354 353 352 349 343 344 346 345 341 311 294 284 273 262 252 244 241 243 242 241 237
191 188 178 184 192 191 175 165 158 146 150 139 137 94 57 54 30 18 19 358 353 27 61 39 33 10 353 324 276 230 30 355 323 99 154 302 70 27 40 8 10 9 12 23 4 11 10 23 19 3 5 353 359 357 356 358 358 358 -0 23 7 0 0 358 355 352 349 348 346 346 342 341 344 348 326 283 264 260 258 251 245 241 241 243 241
190 186 173 171 166 165 165 158 145 137 126 97 94 93 51 39 25 13 32 29 349 354 16 95 51 39 26 24 3 348 336 333 295 35 250 96 298 52 32 15 21 9 22 16 5 20 15 19 5 1 1 358 354 355 348 2 4 2 18 14 2 359 358 357 356 354 349 346 345 345 344 339 339 338 340 355 349 304 261 255 258 246 242 244 239
193 170 163 155 152 149 147 137 120 114 97 92 77 52 45 35 21 27 11 33 2 9 17 16 150 81 37 38 23 0 351 332 3 306 295 131 86 45 51 21 28 22 18 12 357 32 16 17 2 349 346 354 352 347 347 353 7 359 54 12 356 355 357 357 356 353 350 346 344 343 342 341 340 334 333 344 350 349 350 322 273 255 247 240 238
174 147 155 153 144 137 133 122 117 102 100 85 70 59 75 68 55 39 40 31 27 20 20 52 343 59 43 29 342 291 81 355 3 333 305 312 25 107 58 33 8 40 21 2 360 18 12 10 358 358 350 356 348 349 349 351 350 341 9 6 347 343 352 357 357 353 350 345 344 344 341 341 339 337 336 339 345 345 342 340 344 316 272 261 248
118 141 153 139 140 134 127 120 107 104 103 95 82 70 46 50 50 52 46 55 53 39 52 40 20 40 347 57 344 352 92 86 11 348 346 334 359 357 352 12 358 36 21 4 356 14 15 12 359 355 354 357 354 354 357 353 350 340 17 358 341 338 346 355 358 354 350 345 344 343 342 340 339 339 338 338 340 341 337 338 336 333 336 314 267
75 207 139 132 126 122 115 100 91 79 75 74 80 76 74 70 59 59 63 73 63 62 44 53 58 41 27 15 28 17 36 38 28 5 9 12 336 338 347 353 352 14 35 0 358 3 14 6 359 359 356 355 356 351 356 354 348 10 4 352 337 334 348 357 359 356 350 346 345 344 342 341 340 339 338 337 338 336 337 335 332 338 336 331 333
159 109 116 102 102 99 101 93 89 99 101 102 101 86 86 80 77 73 73 79 81 75 68 61 62 58 41 39 43 38 25 26 13 10 356 0 340 344 341 6 334 339 59 10 353 6 19 356 358 359 351 357 352 348 348 349 348 27 3 348 330 332 3 6 4 358 349 346 346 344 343 343 341 339 338 339 336 334 335 332 334 335 332 337 328
149 122 98 98 96 97 93 100 101 95 98 100 105 108 91 92 95 97 94 83 78 81 78 76 72 74 57 57 56 48 42 30 20 10 2 358 344 338 343 345 337 352 30 344 25 18 16 355 353 6 356 356 354 349 350 346 358 30 359 343 325 39 18 9 7 356 347 345 346 345 344 343 341 339 339 339 335 334 332 331 334 334 336 331 328
119 117 109 112 108 107 108 97 103 102 104 109 97 95 100 105 101 91 83 85 77 75 77 66 59 59 75 67 60 54 47 37 22 14 11 353 356 343 345 337 337 331 6 331 25 53 6 16 3 16 357 358 356 357 352 349 352 22 357 334 342 88 27 11 2 352 344 344 344 343 343 342 340 338 338 336 335 333 329 331 331 334 333 327 324
133 125 132 119 117 102 105 104 104 113 109 105 113 114 114 109 104 103 99 91 89 86 83 79 72 69 69 71 59 57 52 40 30 28 22 11 9 358 338 341 331 351 1 10 56 13 12 18 26 17 5 2 1 357 356 346 353 14 346 324 339 11 37 9 0 347 340 341 341 342 344 341 338 338 337 335 333 329 329 330 332 334 332 329 323
121 117 121 108 109 113 115 117 118 113 116 118 115 114 107 105 104 97 93 91 88 85 82 81 79 76 70 68 71 62 53 46 42 29 31 23 11 1 350 350 356 47 7 33 22 52 7 5 21 27 9 4 0 359 359 344 15 8 328 342 340 18 39 10 348 337 338 340 340 343 343 340 338 338 337 335 332 331 332 330 332 330 329 327 323
115 112 115 119 116 113 119 121 122 122 124 123 123 120 114 110 104 101 99 97 99 97 95 87 82 77 74 74 74 67 54 47 44 40 29 20 23 10 2 1 352 355 5 22 25 29 26 5 17 34 7 4 359 357 356 343 21 357 342 344 346 333 16 354 332 326 344 342 343 344 342 338 339 339 338 336 334 335 334 332 331 330 329 326 324
125 119 124 122 127 122 121 123 123 125 123 123 122 118 115 106 104 102 98 96 91 85 84 84 84 80 77 72 73 71 69 61 51 46 38 33 30 24 17 10 351 347 359 359 32 2 13 14 2 6 5 4 358 358 359 354 18 357 346 346 342 344 356 328 320 339 354 349 350 345 338 337 337 338 338 336 336 335 335 334 332 333 329 327 325
128 124 124 124 129 123 126 131 133 130 130 127 123 119 109 103 102 100 98 99 96 89 83 82 80 79 79 80 77 77 66 62 61 45 46 38 33 31 27 21 9 7 357 351 14 25 358 9 7 356 2 -0 354 3 0 353 26 351 352 347 345 351 333 307 338 356 6 360 355 345 338 336 334 335 336 335 337 336 337 336 337 334 332 330 329
126 127 128 133 142 128 133 134 134 132 130 126 125 118 110 109 108 104 102 98 94 91 86 84 83 86 89 86 84 81 76 69 63 60 48 37 33 35 27 22 25 7 352 349 353 38 15 359 359 1 358 356 354 2 4 359 5 351 350 352 354 345 317 349 353 5 17 7 355 346 341 335 330 332 332 334 334 336 336 337 338 336 337 335 335
128 133 133 137 136 132 138 139 136 133 131 129 124 121 113 108 106 103 103 103 97 95 95 92 93 93 89 84 76 74 74 75 69 63 58 47 33 27 21 18 27 13 360 359 6 9 21 360 358 354 356 353 359 2 6 358 355 353 353 355 353 346 354 350 351 360 38 3 351 346 335 331 330 327 333 333 331 332 336 334 333 337 336 341 346
136 138 137 140 140 136 139 142 139 134 132 130 126 116 111 108 104 107 109 105 102 101 103 101 97 92 87 86 81 74 67 63 68 66 53 44 39 33 21 19 22 21 9 5 6 5 14 17 358 357 359 359 357 7 6 357 357 355 353 0 357 356 354 350 350 9 44 2 355 343 333 329 327 327 331 328 329 328 331 328 333 336 343 352 348
139 135 136 137 139 140 143 139 138 134 132 128 120 119 115 114 110 109 108 106 106 105 102 97 94 88 84 81 76 68 61 62 51 51 46 42 35 29 30 23 21 19 18 5 10 13 0 17 360 8 7 10 358 10 5 358 358 358 356 359 357 356 7 352 353 1 35 6 349 340 335 330 324 328 329 330 327 330 331 332 331 342 352 353 348
133 133 132 140 142 144 145 139 138 135 131 125 121 121 120 120 116 113 111 110 110 110 104 101 97 93 88 81 75 68 62 62 60 53 45 38 36 37 30 30 27 22 18 18 5 11 5 15 8 4 11 7 6 9 5 1 356 355 358 3 356 358 356 357 353 349 17 356 344 337 338 333 331 335 340 336 335 334 336 335 340 356 355 352 351
130 127 135 137 142 147 144 141 138 138 129 126 127 124 122 121 120 116 114 112 109 105 103 101 96 89 85 81 73 71 68 63 56 55 45 39 34 29 28 26 34 28 25 22 20 8 13 7 16 10 7 4 7 7 4 0 356 359 360 357 -0 357 357 356 354 351 0 355 346 351 347 344 346 348 339 342 338 336 340 341 355 1 356 354 348
125 130 136 142 142 147 146 143 136 132 131 129 123 122 122 121 117 115 112 108 103 100 98 95 90 87 81 75 73 69 65 63 58 51 47 36 31 29 20 23 24 26 26 20 21 19 18 18 9 15 14 12 5 3 8 359 0 1 358 356 358 1 1 357 354 355 353 354 353 352 350 347 353 340 347 350 342 345 346 348 3 2 355 350 346
127 136 145 146 147 143 141 139 136 133 129 129 128 127 124 121 115 113 112 109 106 104 100 94 90 85 82 77 72 68 61 57 50 47 39 32 31 26 23 18 16 20 28 28 20 28 23 22 14 9 19 13 3 6 6 2 359 359 358 355 351 357 2 358 357 358 355 354 353 350 351 350 349 343 6 350 348 353 347 347 3 359 351 346 342
131 140 149 144 142 141 135 133 131 129 128 128 128 128 125 121 118 115 112 108 106 102 97 95 91 87 84 80 73 64 60 54 46 32 27 35 31 27 23 17 18 17 30 31 24 34 31 22 21 17 11 12 8 359 2 1 1 2 358 353 353 358 358 357 355 354 355 352 352 349 351 348 340 349 1 344 355 348 339 342 357 356 350 346 339
136 143 145 142 135 132 131 130 125 125 128 131 132 130 124 122 120 116 112 112 109 105 101 100 98 92 87 82 72 65 61 53 45 38 24 20 31 33 24 20 20 24 31 33 28 31 32 27 21 14 15 6 6 4 359 1 2 4 6 359 353 354 354 355 355 352 354 351 350 350 353 350 351 354 354 345 359 348 348 353 360 352 348 344 337
147 150 145 136 132 129 128 126 129 131 131 129 134 131 126 123 121 118 116 113 112 110 107 103 100 96 89 83 78 76 69 63 43 35 27 6 19 38 27 22 24 30 33 34 32 28 31 28 23 16 14 9 7 1 1 4 4 359 355 357 355 356 353 352 353 359 357 352 348 349 352 353 351 353 351 350 352 351 355 357 356 350 345 340 335
148 146 143 137 133 133 132 131 128 128 123 114 64 95 122 126 122 119 120 118 114 111 108 105 100 98 97 94 97 101 113 113 97 75 65 57 43 41 35 30 26 32 34 35 33 28 26 29 25 15 12 10 7 2 360 359 353 348 353 354 355 356 357 353 350 1 1 355 349 348 348 350 350 350 352 352 353 354 351 349 354 345 338 336 335
146 145 140 136 134 133 132 133 131 124 118 98 80 79 93 116 123 124 122 118 116 113 110 107 106 108 111 115 121 153 157 143 112 112 106 98 95 89 73 55 38 31 27 31 36 30 27 27 29 21 15 7 6 1 360 351 352 348 351 349 352 354 357 355 355 353 5 354 350 346 345 347 349 351 351 355 355 350 349 352 350 341 337 336 335
146 145 138 134 132 132 132 130 125 120 112 89 93 79 73 103 120 122 120 119 116 111 108 108 107 105 103 98 90 80 57 57 127 130 121 131 134 124 104 87 75 58 39 26 13 27 25 27 26 24 12 9 5 5 357 352 348 344 349 346 353 351 352 357 355 357 354 356 351 350 344 348 350 352 351 355 354 350 347 349 345 337 336 338 337
147 147 136 134 134 134 132 127 122 121 121 99 102 95 83 83 116 127 116 116 113 106 105 106 107 107 107 109 107 98 108 189 92 77 109 137 161 149 128 117 95 76 66 40 10 359 11 31 26 27 20 3 6 6 360 346 337 341 345 350 353 346 348 347 353 350 351 3 352 349 345 349 353 352 349 353 353 352 344 347 341 335 336 339 340
147 145 137 134 135 134 129 127 125 125 126 116 115 105 91 73 87 113 113 109 107 105 102 103 105 107 113 114 111 98 81 56 49 57 76 64 77 107 91 57 64 106 118 129 180 236 10 31 30 27 21 14 7 0 355 346 345 345 341 345 341 341 340 341 341 343 342 8 3 348 345 348 354 352 352 348 349 347 346 343 338 339 341 342 343
147 145 138 137 134 131 131 128 129 129 116 124 120 115 108 102 106 115 111 111 106 103 100 97 98 100 101 98 96 96 78 58 39 338 6 74 75 81 75 72 71 57 48 40 32 29 36 35 40 35 28 21 10 3 357 352 348 338 333 328 334 331 323 324 336 343 342 12 7 357 348 340 352 353 356 349 346 346 351 348 349 346 347 344 345
145 140 136 134 134 135 133 131 132 131 122 134 129 130 132 141 170 121 117 113 111 110 108 107 107 105 103 99 98 92 77 76 16 331 330 341 80 68 65 67 70 81 77 82 43 350 357 26 40 29 18 326 298 308 322 334 337 340 323 338 345 336 340 348 352 349 351 4 20 1 346 340 354 350 352 351 348 346 352 355 354 350 348 347 347
148 140 137 139 139 137 136 135 135 134 135 150 146 146 154 186 218 118 125 118 114 113 110 113 106 94 84 83 104 91 89 70 9 325 337 325 77 64 68 67 60 56 68 136 186 192 212 240 258 261 269 271 264 255 256 259 278 303 330 350 356 345 350 350 351 351 355 3 20 2 343 339 347 352 348 350 350 348 351 354 353 350 342 345 348
144 139 140 140 140 139 139 139 140 141 140 137 163 155 181 226 265 133 129 121 117 116 118 108 102 93 63 22 17 96 87 75 350 327 344 327 71 55 62 66 55 58 52 34 113 187 203 216 224 234 238 250 252 249 250 256 269 286 357 352 350 347 352 356 349 349 349 9 21 357 338 350 340 353 347 342 341 355 349 355 353 339 337 349 350
137 140 143 141 140 141 141 138 137 141 137 137 172 160 205 240 245 135 132 130 130 129 128 124 121 113 105 74 43 35 50 38 342 353 359 355 63 44 44 52 53 46 37 19 9 355 4 354 300 262 250 234 261 344 28 207 237 286 352 345 346 348 352 353 354 350 356 5 16 355 336 344 345 355 352 344 342 336 343 343 344 338 335 347 351